Regional Weather Roundup
Issued by NWS Newport/Morehead, NC

Current Version | Previous Version | Text Only | Print | Product List | Glossary Off
Versions: 1 2 3 4 5 6 7 8 9 10 11 12 13 14 15 16 17 18 19 20 21 22 23 24 25 26 27 28 29 30 31 32 33 34 35 36 37 38 39 40 41 42 43 44 45 46 47 48 49 50
000 ASUS42 KMHX 261625 RWRMHX WEATHER ROUNDUP FOR EASTERN NORTH CAROLINA NATIONAL WEATHER SERVICE NEWPORT/MOREHEAD CITY NC 1200 PM EDT THU MAY 26 2016 NOTE: "FAIR" INDICATES FEW OR NO CLOUDS BELOW 12,000 FEET WITH NO SIGNIFICANT WEATHER AND/OR OBSTRUCTIONS TO VISIBILITY NCZ015>017-031-032-045>047-102-103-261700- NORTH COAST CITY SKY/WX TMP DP RH WIND PRES REMARKS EDENTON NOT AVBL ELIZABETH CITY SUNNY 82 66 58 S8 30.16F KITTY HAWK SUNNY 87 63 44 S8 30.17S MANTEO NOT AVBL $$ NCZ045>047-081-094-103-104-261700- CENTRAL COAST CITY SKY/WX TMP DP RH WIND PRES REMARKS FRISCO SUNNY 77 67 71 SW9 30.21S $$ NCZ095-097-098-100-101-261700- SOUTHERN COAST CITY SKY/WX TMP DP RH WIND PRES REMARKS BEAUFORT SUNNY 79 68 69 S13 30.21F CEDAR ISLAND NOT AVBL JACKSONVILLE SUNNY 83 62 49 S8 30.19F PINEY ISLAND NOT AVBL WILMINGTON PTSUNNY 83 64 52 VRB6 30.20F $$ NCZ011>013-027>030-043-044-078>080-089-090>093-098-261700- COASTAL PLAIN CITY SKY/WX TMP DP RH WIND PRES REMARKS AHOSKIE NOT AVBL CLINTON SUNNY 84 68 58 SW7 30.18F ELIZABETHTOWN MOSUNNY 82 63 51 SW6 30.19F GOLDSBORO SUNNY 84 65 52 W9 30.16F GREENVILLE SUNNY 84 66 54 SW7 30.18F HAVELOCK MOSUNNY 81 67 62 W8 30.20F KENANSVILLE SUNNY 83 62 49 CALM 30.18F KINSTON SUNNY 84 64 51 SW6 30.18F NEW BERN SUNNY 83 62 49 W7 30.20F RICHLANDS SUNNY 84 64 50 SW6 30.19F ROCKY MOUNT SUNNY 84 65 52 S9 30.16F WASHINGTON SUNNY 83 65 54 SW7 30.17F WHITEVILLE SUNNY 82 61 48 S7 30.19F $$ AMZ130-135-150-152-154-156-158-170-250-252-270-ANZ085-086-088-633-658-670-261700- MARINE OBSERVATIONS STATION/POSITION TIME TEMP WIND PRES WAVE SWELL AIR SEA DIR/SP/G HT/PER HT/PER (UTC) (F) (DEG/KT/KT) (MB) (FT/S) (FT/S) CHESAPEAKE LIGHT 1600 70 190/ 15/ 15 1021.3 64 E VA BEACH 1550 63 58 210/ 10/ 10 1021.8 2/ 4 2/ 4 DUCK 1600 78 62 190/ 11/ 14 1020.8 2 E DUCK 1611 64 N/A 2/11 OREGON INLET 1600 74 72 190/ 14/ 18 1022.1 13E OREGON INLT 1600 65 N/A 2/ 9 2/ 9 HATTERAS CG 1600 77 71 200/ 6/ 10 1022.4 DIAMOND BUOY 1550 73 70 240/ 6/ 8 1023.0 2/ 8 2/ 8 CAPE LOOKOUT 1600 78 210/ 8/ 10 1022.7 BEAUFORT LAB 1600 77 70 210/ 8/ 11 1022.2 30 SE NEW RVR IN 1525 75 N/A 2/ 8 27 SE WRIGHTSVLE 1608 76 74 230/ 6/ 8 1022.9 5 SE WRIGHTSVLE 1608 75 74 190/ 10/ 14 1023.5 225 S CAPE HAT 1550 75 78 60/ 12/ 16 1022.8 2/ 8 2/ 8 41 SE CHARLESTON 1550 77 77 150/ 4/ 4 1023.1 2/ 8 2/ 8 $$

USA.gov is the U.S. government's official web portal to all federal, state and local government web resources and services.